Ridgedale, MO

6:42 PM CST on December 04, 2016 (GMT -0600)
Branson

Weather History for KBBG - October, 2011

Change the Weather History Date:

Saturday, October 22, 2011

  Actual Average (KHRO) Record (KHRO)
Temperature  
Mean Temperature 58 °F 57 °F  
Max Temperature 71 °F 68 °F 93 °F (1927)
Min Temperature 44 °F 46 °F 23 °F (1952)
Degree Days  
Heating Degree Days 8 8  
Month to date heating degree days 133  
Since 1 July heating degree days 176  
Cooling Degree Days 0 1  
Month to date cooling degree days 28  
Year to date cooling degree days 1407  
Growing Degree Days 8 (Base 50)    
Moisture  
Dew Point 42 °F    
Average Humidity 64    
Maximum Humidity 81    
Minimum Humidity 40    
Precipitation  
Precipitation 0.00 in 0.13 in 2.05 in (1951)
Month to date precipitation 2.47  
Year to date precipitation 35.63  
Snow  
Snow 0.00 in 0.00 in - ()
Month to date snowfall 0.0  
Since 1 July snowfall 0.0  
Since 1 September snowfall 0.0  
Snow Depth -    
Sea Level Pressure  
Sea Level Pressure 30.10 in    
Wind  
Wind Speed 0 mph (ESE)    
Max Wind Speed 6 mph    
Max Gust Speed -    
Visibility 10 miles    
Events      
T = Trace of Precipitation, MM = Missing Value Source: NWS Daily Summary

Daily Weather History Graph

Daily Weather History Graph

Search for Another Location

Airport or City:

Trip Planner

Search our weather history database for the weather conditions in past years. The results will help you decide how hot, cold, wet, or windy it might be!

Date:

Astronomy

Oct. 22, 2011 Rise Set
Actual Time 7:26 AM CDT 6:27 PM CDT
Civil Twilight 7:00 AM CDT 6:53 PM CDT
Nautical Twilight 6:29 AM CDT 7:24 PM CDT
Astronomical Twilight 5:59 AM CDT 7:53 PM CDT
Moon 2:32 AM CDT (10/22) 3:39 PM CDT (10/22)
Length of Visible Light 11h 53m
Length of Day
11h 01m
Waning Crescent, 23% of the Moon is Illuminated
Oct 22
Waning Crescent
Oct 26
New
Nov 2
First Quarter
Nov 10
Full
Nov 18
Last Quarter

Hourly Weather History & Observations

Time (CDT) Temp. Dew Point Humidity Pressure Visibility Wind Dir Wind Speed Gust Speed Precip Events Conditions
12:15 AM 53.6 °F 37.4 °F 54% 30.14 in 10.0 mi Calm Calm - N/A   Clear
12:35 AM 48.2 °F 39.2 °F 71% 30.14 in 10.0 mi Calm Calm - N/A   Clear
12:55 AM 44.6 °F 39.2 °F 81% 30.13 in 10.0 mi Calm Calm - N/A   Clear
1:15 AM 46.4 °F 39.2 °F 76% 30.13 in 10.0 mi Calm Calm - N/A   Clear
1:35 AM 48.2 °F 37.4 °F 66% 30.13 in 10.0 mi Calm Calm - N/A   Clear
2:15 AM 48.2 °F 39.2 °F 71% 30.13 in 10.0 mi Calm Calm - N/A   Clear
2:35 AM 46.4 °F 37.4 °F 71% 30.13 in 10.0 mi Calm Calm - N/A   Clear
2:55 AM 44.6 °F 39.2 °F 81% 30.12 in 10.0 mi Calm Calm - N/A   Clear
3:15 AM 48.2 °F 37.4 °F 66% 30.12 in 10.0 mi Calm Calm - N/A   Clear
3:35 AM 48.2 °F 37.4 °F 66% 30.12 in 10.0 mi Calm Calm - N/A   Clear
3:55 AM 48.2 °F 37.4 °F 66% 30.12 in 10.0 mi Calm Calm - N/A   Clear
4:15 AM 44.6 °F 39.2 °F 81% 30.12 in 10.0 mi Calm Calm - N/A   Clear
4:35 AM 44.6 °F 37.4 °F 76% 30.12 in 10.0 mi Calm Calm - N/A   Clear
4:55 AM 46.4 °F 37.4 °F 71% 30.13 in 10.0 mi Calm Calm - N/A   Clear
5:15 AM 46.4 °F 37.4 °F 71% 30.13 in 10.0 mi Calm Calm - N/A   Clear
5:35 AM 48.2 °F 37.4 °F 66% 30.13 in 10.0 mi Calm Calm - N/A   Clear
6:35 AM 46.4 °F 39.2 °F 76% 30.14 in 10.0 mi Calm Calm - N/A   Clear
6:55 AM 44.6 °F 39.2 °F 81% 30.14 in 10.0 mi Calm Calm - N/A   Clear
7:45 AM 44.6 °F 39.2 °F 81% 30.14 in 10.0 mi Calm Calm - N/A   Clear
8:59 AM 51.8 °F 41.0 °F 67% 30.16 in 10.0 mi Calm Calm - N/A   Clear
10:57 AM 64.4 °F 46.4 °F 52% 30.15 in 10.0 mi Calm Calm - N/A   Clear
11:55 AM 68.0 °F 46.4 °F 46% 30.14 in 10.0 mi Calm Calm - N/A   Partly Cloudy
12:46 PM 69.8 °F 44.6 °F 40% 30.12 in 10.0 mi Calm Calm - N/A   Scattered Clouds
1:49 PM 71.6 °F 46.4 °F 41% 30.09 in 10.0 mi Calm Calm - N/A   Mostly Cloudy
2:45 PM 71.6 °F 48.2 °F 43% 30.07 in 10.0 mi Calm Calm - N/A   Mostly Cloudy
3:50 PM 68.0 °F 44.6 °F 43% 30.06 in 10.0 mi Calm Calm - N/A   Mostly Cloudy
4:45 PM 68.0 °F 46.4 °F 46% 30.05 in 10.0 mi East 5.8 mph - N/A   Mostly Cloudy
5:48 PM 64.4 °F 48.2 °F 56% 30.05 in 10.0 mi ESE 3.5 mph - N/A   Mostly Cloudy
6:55 PM 62.6 °F 46.4 °F 55% 30.04 in 10.0 mi ESE 4.6 mph - N/A   Mostly Cloudy
7:46 PM 60.8 °F 46.4 °F 59% 30.02 in 10.0 mi ESE 5.8 mph - N/A   Mostly Cloudy
8:46 PM 59.0 °F 46.4 °F 63% 30.03 in 10.0 mi ESE 4.6 mph - N/A   Mostly Cloudy
9:15 PM 59.0 °F 44.6 °F 59% 30.03 in 10.0 mi Calm Calm - N/A   Clear
9:35 PM 59.0 °F 44.6 °F 59% 30.04 in 10.0 mi Calm Calm - N/A   Clear
9:55 PM 59.0 °F 44.6 °F 59% 30.04 in 10.0 mi Calm Calm - N/A   Clear
10:35 PM 57.2 °F 46.4 °F 67% 30.04 in 10.0 mi Calm Calm - N/A   Scattered Clouds
10:55 PM 59.0 °F 46.4 °F 63% 30.04 in 10.0 mi Calm Calm - N/A   Partly Cloudy
11:15 PM 59.0 °F 46.4 °F 63% 30.04 in 10.0 mi Calm Calm - N/A   Mostly Cloudy
11:35 PM 59.0 °F 48.2 °F 67% 30.03 in 10.0 mi Calm Calm - N/A   Mostly Cloudy
11:55 PM 59.0 °F 46.4 °F 63% 30.01 in 10.0 mi Calm Calm - N/A   Scattered Clouds